Date String (YYYY-MM-DD hh:mm:ss) UTC,Instrument flags,Ambient pressure (hPa),Sample flow (lpm),Bypass flow (lpm),Sample temperature (°C),Ambient temperature (°C),ASC tube jacket temperature (°C),LED temperature (°C),Box temperature (°C),Sample RH (%),Span deviation,Mass concentration (μg/m³),Mass concentration (μg/m³),Mass concentration (μg/m³)
DateTimeUTC,F1_M11,P_M11,Q1_M11,Q2_M11,T1_M11,T2_M11,T3_M11,T4_M11,T5_M11,U1_M11,ZSPAN_M11,X0_M11,X2_M11,X1_M11
2022-10-16 04:00:00,,0833.6,5.00,0.00,30.6,29.1,00.0,39.3,32.3,16.0,0000.0,0010.55,0004.60,0004.01
2022-10-16 04:01:00,,0833.6,5.00,0.00,30.6,29.1,00.0,39.3,32.3,16.0,0000.0,0010.30,0004.56,0003.99
2022-10-16 04:02:00,,0833.6,5.00,0.00,30.6,29.1,00.0,39.4,32.3,16.0,0000.0,0010.46,0004.58,0003.98
2022-10-16 04:03:00,,0833.6,5.00,0.00,30.6,29.1,00.0,39.4,32.3,16.0,0000.0,0010.60,0004.60,0003.96
2022-10-16 04:04:00,,0833.6,5.00,0.00,30.6,29.1,00.0,39.4,32.4,16.0,0000.0,0010.70,0004.58,0003.94
2022-10-16 04:05:00,,0833.6,5.00,0.00,30.6,29.2,00.0,39.4,32.3,16.0,0000.0,0010.73,0004.56,0003.93
2022-10-16 04:06:00,,0833.6,4.99,0.00,30.6,29.2,00.0,39.4,32.4,16.0,0000.0,0010.65,0004.52,0003.91
2022-10-16 04:07:00,,0833.6,5.01,0.00,30.6,29.1,00.0,39.4,32.4,16.0,0000.0,0009.92,0004.49,0003.89
2022-10-16 04:08:00,,0833.6,5.01,0.00,30.6,29.1,00.0,39.4,32.4,16.0,0000.0,0009.23,0004.45,0003.88
2022-10-16 04:09:00,,0833.7,5.00,0.00,30.6,29.2,00.0,39.4,32.3,16.0,0000.0,0009.11,0004.41,0003.87
2022-10-16 04:10:00,,0833.7,5.00,0.00,30.6,29.2,00.0,39.4,32.3,16.0,0000.0,0008.99,0004.40,0003.87
2022-10-16 04:11:00,,0833.6,5.00,0.00,30.6,29.2,00.0,39.4,32.4,16.0,0000.0,0008.77,0004.38,0003.87
2022-10-16 04:12:00,,0833.6,5.01,0.00,30.6,29.2,00.0,39.4,32.4,16.0,0000.0,0008.91,0004.39,0003.88
2022-10-16 04:13:00,,0833.6,5.01,0.00,30.6,29.2,00.0,39.4,32.3,16.0,0000.0,0008.32,0004.36,0003.88
2022-10-16 04:14:00,,0833.6,5.00,0.00,30.6,29.2,00.0,39.4,32.4,16.0,0000.0,0008.27,0004.35,0003.88
2022-10-16 04:15:00,,0833.6,5.00,0.00,30.6,29.2,00.0,39.4,32.4,16.0,0000.0,0008.27,0004.39,0003.89
2022-10-16 04:16:00,,0833.6,5.00,0.00,30.6,29.2,00.0,39.4,32.4,16.0,0000.0,0008.71,0004.40,0003.90
2022-10-16 04:17:00,,0833.6,5.00,0.00,30.6,29.2,00.0,39.4,32.4,16.0,0000.0,0009.16,0004.44,0003.91
2022-10-16 04:18:00,,0833.6,5.00,0.00,30.6,29.2,00.0,39.4,32.4,16.0,0000.0,0009.37,0004.48,0003.92
2022-10-16 04:19:00,,0833.7,5.01,0.00,30.6,29.2,00.0,39.4,32.4,16.0,0000.0,0009.91,0004.50,0003.92
2022-10-16 04:20:00,,0833.6,5.01,0.00,30.6,29.2,00.0,39.4,32.4,16.0,0000.0,0009.95,0004.53,0003.93
2022-10-16 04:21:00,,0833.7,4.99,0.00,30.6,29.2,00.0,39.4,32.4,16.0,0000.0,0010.69,0004.56,0003.93
2022-10-16 04:22:00,,0833.6,5.00,0.00,30.6,29.2,00.0,39.4,32.4,16.0,0000.0,0010.44,0004.55,0003.94
2022-10-16 04:23:00,,0833.7,5.01,0.00,30.6,29.2,00.0,39.4,32.4,16.0,0000.0,0010.28,0004.55,0003.94
2022-10-16 04:24:00,,0833.6,5.00,0.00,30.6,29.2,00.0,39.4,32.4,16.0,0000.0,0011.25,0004.60,0003.96
2022-10-16 04:25:00,,0833.7,5.00,0.00,30.6,29.2,00.0,39.4,32.4,16.0,0000.0,0011.59,0004.63,0003.97
2022-10-16 04:26:00,,0833.7,4.99,0.00,30.6,29.2,00.0,39.4,32.4,16.0,0000.0,0011.48,0004.60,0003.97
2022-10-16 04:27:00,,0833.6,4.98,0.00,30.6,28.7,00.0,39.4,32.4,16.0,0000.0,0011.03,0004.57,0003.97
2022-10-16 04:28:00,,0833.6,5.01,0.00,30.6,27.1,00.0,39.4,32.2,16.0,0000.0,0011.34,0004.58,0003.97
2022-10-16 04:29:00,,0833.6,5.00,0.00,30.5,26.5,00.0,39.3,32.1,16.0,0000.0,0011.24,0004.59,0003.96
2022-10-16 04:30:00,,0833.7,5.00,0.00,30.4,26.6,00.0,39.2,31.9,16.1,0000.0,0010.83,0004.59,0003.97
2022-10-16 04:31:00,,0833.6,4.98,0.00,30.3,27.0,00.0,39.2,31.8,16.2,0000.0,0011.36,0004.61,0003.98
2022-10-16 04:32:00,,0833.6,5.01,0.00,30.2,27.3,00.0,39.2,31.8,16.3,0000.0,0010.90,0004.62,0003.99
2022-10-16 04:33:00,,0833.6,4.99,0.00,30.2,27.6,00.0,39.1,31.8,16.3,0000.0,0010.53,0004.61,0003.99
2022-10-16 04:34:00,,0833.6,4.99,0.00,30.1,27.8,00.0,39.1,31.8,16.4,0000.0,0011.29,0004.64,0004.01
2022-10-16 04:35:00,,0833.6,5.00,0.00,30.1,27.9,00.0,39.1,31.8,16.4,0000.0,0010.54,0004.61,0004.00
2022-10-16 04:36:00,,0833.6,5.01,0.00,30.1,28.1,00.0,39.0,31.8,16.4,0000.0,0010.21,0004.58,0004.00
2022-10-16 04:37:00,,0833.6,5.00,0.00,30.1,28.2,00.0,39.0,31.9,16.4,0000.0,0010.16,0004.56,0003.99
2022-10-16 04:38:00,,0833.6,5.00,0.00,30.1,28.3,00.0,39.0,31.9,16.4,0000.0,0010.19,0004.59,0003.99
2022-10-16 04:39:00,,0833.6,4.99,0.00,30.1,28.3,00.0,39.0,31.9,16.4,0000.0,0009.56,0004.57,0003.99
2022-10-16 04:40:00,,0833.6,4.99,0.00,30.1,28.4,00.0,39.0,31.9,16.4,0000.0,0009.35,0004.53,0003.99
2022-10-16 04:41:00,,0833.6,4.99,0.00,30.1,28.5,00.0,39.0,31.9,16.4,0000.0,0009.38,0004.52,0003.99
2022-10-16 04:42:00,,0833.6,5.01,0.00,30.1,28.5,00.0,39.0,31.9,16.4,0000.0,0008.94,0004.50,0003.97
2022-10-16 04:43:00,,0833.6,5.00,0.00,30.1,28.5,00.0,38.9,31.9,16.4,0000.0,0008.58,0004.45,0003.96
2022-10-16 04:44:00,,0833.6,5.00,0.00,30.1,28.5,00.0,38.9,31.9,16.4,0000.0,0008.66,0004.43,0003.95
2022-10-16 04:45:00,,0833.6,5.01,0.00,30.1,28.6,00.0,38.9,31.9,16.4,0000.0,0008.17,0004.42,0003.93
2022-10-16 04:46:00,,0833.6,5.00,0.00,30.1,28.6,00.0,38.9,31.9,16.4,0000.0,0008.54,0004.41,0003.93
2022-10-16 04:47:00,,0833.6,5.00,0.00,30.1,28.6,00.0,38.9,31.9,16.4,0000.0,0008.58,0004.42,0003.93
2022-10-16 04:48:00,,0833.6,5.00,0.00,30.1,28.6,00.0,38.9,31.9,16.4,0000.0,0008.64,0004.45,0003.93
2022-10-16 04:49:00,,0833.6,5.00,0.00,30.1,28.6,00.0,38.9,31.9,16.4,0000.0,0008.81,0004.49,0003.93
2022-10-16 04:50:00,,0833.7,5.00,0.00,30.1,28.6,00.0,38.9,31.9,16.4,0000.0,0008.93,0004.51,0003.94
2022-10-16 04:51:00,,0833.6,5.00,0.00,30.1,28.7,00.0,38.9,31.9,16.4,0000.0,0008.93,0004.51,0003.94
2022-10-16 04:52:00,,0833.7,5.00,0.00,30.1,28.7,00.0,38.9,32.0,16.4,0000.0,0008.90,0004.49,0003.93
2022-10-16 04:53:00,,0833.7,4.99,0.00,30.1,28.7,00.0,38.9,32.0,16.4,0000.0,0008.73,0004.46,0003.93
2022-10-16 04:54:00,,0833.7,5.00,0.00,30.1,28.7,00.0,39.0,32.0,16.4,0000.0,0008.81,0004.46,0003.93
2022-10-16 04:55:00,,0833.6,5.00,0.00,30.2,28.7,00.0,39.0,32.0,16.3,0000.0,0008.82,0004.49,0003.94
2022-10-16 04:56:00,,0833.6,4.99,0.00,30.2,28.7,00.0,39.0,31.9,16.4,0000.0,0008.77,0004.51,0003.94
2022-10-16 04:57:00,,0833.6,5.00,0.00,30.2,28.7,00.0,39.0,32.0,16.4,0000.0,0008.20,0004.50,0003.94
2022-10-16 04:58:00,,0833.7,5.00,0.00,30.2,28.8,00.0,39.0,32.0,16.3,0000.0,0008.01,0004.50,0003.95
2022-10-16 04:59:00,,0833.7,5.02,0.00,30.2,28.8,00.0,39.0,32.0,16.3,0000.0,0008.00,0004.49,0003.96
